BEL26C TXKF-MTPP

Flight info

Callsign BEL26C
Flight time 2h 42m
Altitude 32000
Route BORNN1 ANTIG M328 TASNI/M080F330 L455 MCOOP/M080F340 M594 MLLER/N0470F340 M594 CERDA A554 GTK G444 BOTES/N0442F240 G444 SEPTO DCT SEDET SEDET1D
Aircraft A320/M-SDE3FGHIRWY/LB1

Departure

Time 2026-04-26 16:01
Airport L.F. Wade International Airport (TXKF)

Arrival

Time 2026-04-26 18:43
Airport Toussaint Louverture International Airport (MTPP)
Time Latitude Longitude Altitude Speed Heading
2026-04-26 15:20 32.36070 -64.70126 27 ft 0 kts 151°
2026-04-26 15:22 32.36076 -64.70129 27 ft 0 kts 151°
2026-04-26 15:46 32.36078 -64.70131 27 ft 3 kts 151°
2026-04-26 15:46 32.36100 -64.70147 26 ft 4 kts 140°
2026-04-26 15:46 32.36119 -64.70170 26 ft 4 kts 123°
2026-04-26 15:46 32.36128 -64.70188 26 ft 4 kts 102°
2026-04-26 15:47 32.36128 -64.70211 26 ft 0 kts 62°
2026-04-26 15:52 32.36130 -64.70206 26 ft 3 kts 62°
2026-04-26 15:53 32.36147 -64.70167 26 ft 3 kts 63°
2026-04-26 15:53 32.36167 -64.70122 26 ft 8 kts 59°
2026-04-26 15:53 32.36201 -64.70084 26 ft 6 kts 32°
2026-04-26 15:53 32.36230 -64.70063 26 ft 4 kts 32°
2026-04-26 15:54 32.36254 -64.70045 27 ft 5 kts 32°
2026-04-26 15:54 32.36303 -64.70007 27 ft 11 kts 39°
2026-04-26 15:54 32.36357 -64.69909 27 ft 17 kts 67°
2026-04-26 15:54 32.36399 -64.69790 27 ft 13 kts 67°
2026-04-26 15:55 32.36436 -64.69687 27 ft 14 kts 68°
2026-04-26 15:55 32.36473 -64.69581 26 ft 14 kts 66°
2026-04-26 15:55 32.36513 -64.69474 26 ft 13 kts 66°
2026-04-26 15:55 32.36568 -64.69418 28 ft 0 kts 22°
2026-04-26 15:58 32.36617 -64.69401 26 ft 11 kts 14°
2026-04-26 15:58 32.36658 -64.69353 26 ft 8 kts 85°
2026-04-26 15:58 32.36655 -64.69324 26 ft 0 kts 99°
2026-04-26 16:00 32.36646 -64.69265 26 ft 29 kts 101°
2026-04-26 16:00 32.36553 -64.68738 28 ft 98 kts 101°
2026-04-26 16:00 32.36377 -64.67720 25 ft 152 kts 102°
2026-04-26 16:01 32.36157 -64.66430 481 ft 159 kts 103°
2026-04-26 16:01 32.35928 -64.65148 1151 ft 161 kts 104°
2026-04-26 16:01 32.35695 -64.63850 1811 ft 161 kts 103°
2026-04-26 16:01 32.35475 -64.62557 2463 ft 161 kts 103°
2026-04-26 16:02 32.35257 -64.61262 2990 ft 161 kts 102°
2026-04-26 16:02 32.35031 -64.59936 3316 ft 173 kts 102°
2026-04-26 16:02 32.34751 -64.58465 3482 ft 195 kts 111°
2026-04-26 16:02 32.34248 -64.57562 3583 ft 207 kts 142°
2026-04-26 16:03 32.32345 -64.57023 3926 ft 227 kts 187°
2026-04-26 16:03 32.30721 -64.57324 4289 ft 242 kts 193°
2026-04-26 16:03 32.29027 -64.57758 4738 ft 259 kts 194°
2026-04-26 16:03 32.27234 -64.58249 5341 ft 268 kts 197°
2026-04-26 16:04 32.25522 -64.59136 6062 ft 271 kts 214°
2026-04-26 16:04 32.24079 -64.60563 6798 ft 272 kts 230°
2026-04-26 16:04 32.23024 -64.62418 7526 ft 274 kts 243°
2026-04-26 16:04 32.22137 -64.64418 8280 ft 276 kts 243°
2026-04-26 16:05 32.21233 -64.66433 9033 ft 279 kts 242°
2026-04-26 16:05 32.20317 -64.68465 9801 ft 281 kts 242°
2026-04-26 16:05 32.19387 -64.70526 10300 ft 293 kts 242°
2026-04-26 16:05 32.18396 -64.72730 10457 ft 316 kts 242°
2026-04-26 16:06 32.17326 -64.75103 10583 ft 338 kts 242°
2026-04-26 16:06 32.16187 -64.77627 10718 ft 358 kts 242°
2026-04-26 16:06 32.15001 -64.80258 11138 ft 367 kts 242°
2026-04-26 16:06 32.13796 -64.82931 11739 ft 370 kts 242°
2026-04-26 16:07 32.12582 -64.85620 12358 ft 373 kts 242°
2026-04-26 16:07 32.11356 -64.88330 12983 ft 375 kts 242°
2026-04-26 16:07 32.10124 -64.91051 13613 ft 378 kts 242°
2026-04-26 16:07 32.08881 -64.93797 14193 ft 381 kts 242°
2026-04-26 16:08 32.07630 -64.96561 14729 ft 383 kts 243°
2026-04-26 16:08 32.06799 -64.98393 15083 ft 385 kts 243°
2026-04-26 16:08 32.05103 -65.02133 15805 ft 388 kts 243°
2026-04-26 16:08 32.03828 -65.04948 16334 ft 391 kts 243°
2026-04-26 16:09 32.02543 -65.07786 16862 ft 393 kts 243°
2026-04-26 16:09 32.01248 -65.10639 17372 ft 396 kts 243°
2026-04-26 16:09 31.99958 -65.13469 17864 ft 399 kts 243°
2026-04-26 16:09 31.98624 -65.16396 18367 ft 401 kts 243°
2026-04-26 16:10 31.97317 -65.19263 18786 ft 404 kts 242°
2026-04-26 16:10 31.95966 -65.22226 19178 ft 407 kts 242°
2026-04-26 16:10 31.94640 -65.25135 19562 ft 409 kts 242°
2026-04-26 16:10 31.93289 -65.28099 19935 ft 412 kts 242°
2026-04-26 16:11 31.91931 -65.31080 20307 ft 415 kts 242°
2026-04-26 16:11 31.90557 -65.34083 20669 ft 418 kts 242°
2026-04-26 16:11 31.89175 -65.37095 21024 ft 420 kts 242°
2026-04-26 16:11 31.87779 -65.40128 21367 ft 423 kts 242°
2026-04-26 16:12 31.86374 -65.43179 21707 ft 425 kts 242°
2026-04-26 16:12 31.84965 -65.46244 22029 ft 427 kts 242°
2026-04-26 16:12 31.82124 -65.52431 22670 ft 432 kts 242°
2026-04-26 16:13 31.80691 -65.55547 22975 ft 434 kts 242°
2026-04-26 16:13 31.79251 -65.58680 23280 ft 437 kts 242°
2026-04-26 16:13 31.77804 -65.61825 23580 ft 439 kts 242°
2026-04-26 16:13 31.76345 -65.64989 23845 ft 441 kts 242°
2026-04-26 16:14 31.74883 -65.68158 24099 ft 443 kts 242°
2026-04-26 16:14 31.73412 -65.71346 24346 ft 444 kts 242°
2026-04-26 16:14 31.70451 -65.77748 24826 ft 447 kts 242°
2026-04-26 16:15 31.68963 -65.80960 25055 ft 449 kts 242°
2026-04-26 16:15 31.67465 -65.84188 25274 ft 451 kts 242°
2026-04-26 16:15 31.65964 -65.87422 25490 ft 452 kts 242°
2026-04-26 16:16 31.62923 -65.93966 25906 ft 455 kts 242°
2026-04-26 16:16 31.61408 -65.97226 26103 ft 456 kts 242°
2026-04-26 16:16 31.59881 -66.00502 26300 ft 458 kts 242°
2026-04-26 16:16 31.58871 -66.02670 26420 ft 458 kts 242°
2026-04-26 16:17 31.57344 -66.05952 26641 ft 458 kts 242°
2026-04-26 16:17 31.55815 -66.09229 26884 ft 458 kts 242°
2026-04-26 16:17 31.54322 -66.12528 27130 ft 457 kts 245°
2026-04-26 16:17 31.53210 -66.16011 27383 ft 457 kts 254°
2026-04-26 16:18 31.52588 -66.19656 27640 ft 457 kts 263°
2026-04-26 16:18 31.52417 -66.27089 28152 ft 456 kts 269°
2026-04-26 16:19 31.52339 -66.34508 28709 ft 455 kts 269°
2026-04-26 16:19 31.52288 -66.38219 28956 ft 454 kts 268°
2026-04-26 16:19 31.52181 -66.45604 29504 ft 453 kts 268°
2026-04-26 16:20 31.52127 -66.49297 29769 ft 452 kts 268°
2026-04-26 16:20 31.52025 -66.56659 30299 ft 451 kts 268°
2026-04-26 16:20 31.51974 -66.60333 30535 ft 450 kts 268°
2026-04-26 16:21 31.51922 -66.64001 30770 ft 450 kts 268°
2026-04-26 16:21 31.51870 -66.67662 31004 ft 449 kts 268°
2026-04-26 16:21 31.51815 -66.71314 31248 ft 448 kts 268°
2026-04-26 16:21 31.51760 -66.74961 31477 ft 447 kts 268°
2026-04-26 16:22 31.51702 -66.78599 31711 ft 446 kts 268°
2026-04-26 16:22 31.51639 -66.82237 31923 ft 446 kts 268°
2026-04-26 16:22 31.51485 -66.89527 32006 ft 449 kts 268°
2026-04-26 16:23 31.51312 -66.96847 32007 ft 449 kts 268°
2026-04-26 16:23 31.51229 -67.00505 32122 ft 449 kts 268°
2026-04-26 16:23 31.51147 -67.04168 32126 ft 449 kts 268°
2026-04-26 16:24 31.50988 -67.11483 32128 ft 449 kts 268°
2026-04-26 16:24 31.50815 -67.18803 32127 ft 449 kts 268°
2026-04-26 16:25 31.50637 -67.26118 32124 ft 449 kts 268°
2026-04-26 16:25 31.50463 -67.33431 32122 ft 449 kts 268°
2026-04-26 16:26 31.50289 -67.40751 32113 ft 449 kts 268°
2026-04-26 16:26 31.50100 -67.48066 32118 ft 449 kts 268°
2026-04-26 16:27 31.49907 -67.55380 32118 ft 449 kts 268°
2026-04-26 16:27 31.49712 -67.62700 32117 ft 449 kts 268°
2026-04-26 16:28 31.49513 -67.70017 32113 ft 449 kts 268°
2026-04-26 16:28 31.49307 -67.77341 32116 ft 450 kts 268°
2026-04-26 16:29 31.49106 -67.84664 32116 ft 450 kts 268°
2026-04-26 16:29 31.48894 -67.91988 32111 ft 450 kts 268°
2026-04-26 16:30 31.48676 -67.99312 32111 ft 450 kts 268°
2026-04-26 16:30 31.47726 -68.06524 32108 ft 450 kts 252°
2026-04-26 16:31 31.44985 -68.13095 32105 ft 451 kts 240°
2026-04-26 16:31 31.41827 -68.19439 32106 ft 451 kts 240°
2026-04-26 16:32 31.39214 -68.24699 32111 ft 449 kts 241°
2026-04-26 16:32 31.35562 -68.32070 32125 ft 447 kts 241°
2026-04-26 16:33 31.32441 -68.38344 32125 ft 446 kts 241°
2026-04-26 16:33 31.29321 -68.44608 32119 ft 445 kts 241°
2026-04-26 16:34 31.26200 -68.50859 32118 ft 445 kts 241°
2026-04-26 16:34 31.23067 -68.57098 32114 ft 445 kts 241°
2026-04-26 16:35 31.19939 -68.63329 32109 ft 445 kts 241°
2026-04-26 16:35 31.16815 -68.69554 32108 ft 445 kts 241°
2026-04-26 16:36 31.13688 -68.75785 32103 ft 445 kts 241°
2026-04-26 16:36 31.10550 -68.82003 32101 ft 445 kts 241°
2026-04-26 16:37 31.07418 -68.88223 32094 ft 445 kts 241°
2026-04-26 16:37 31.04284 -68.94440 32094 ft 445 kts 241°
2026-04-26 16:38 31.01135 -69.00648 32095 ft 445 kts 241°
2026-04-26 16:38 30.97985 -69.06845 32090 ft 445 kts 241°
2026-04-26 16:39 30.94823 -69.13048 32090 ft 445 kts 239°
2026-04-26 16:39 30.92914 -69.15887 32088 ft 448 kts 226°
2026-04-26 16:39 30.90479 -69.18164 32085 ft 452 kts 214°
2026-04-26 16:40 30.87630 -69.19740 32081 ft 456 kts 200°
2026-04-26 16:40 30.84515 -69.20506 32078 ft 461 kts 187°
2026-04-26 16:40 30.81295 -69.20392 32070 ft 467 kts 173°
2026-04-26 16:40 30.78100 -69.19668 32070 ft 469 kts 171°
2026-04-26 16:41 30.71705 -69.18148 32068 ft 470 kts 171°
2026-04-26 16:41 30.65293 -69.16623 32071 ft 470 kts 171°
2026-04-26 16:42 30.58883 -69.15103 32077 ft 470 kts 171°
2026-04-26 16:42 30.52470 -69.13586 32079 ft 470 kts 172°
2026-04-26 16:43 30.46048 -69.12077 32083 ft 470 kts 171°
2026-04-26 16:43 30.39635 -69.10557 32082 ft 470 kts 171°
2026-04-26 16:44 30.33223 -69.09043 32086 ft 470 kts 171°
2026-04-26 16:44 30.26809 -69.07533 32092 ft 470 kts 171°
2026-04-26 16:45 30.20443 -69.06038 32091 ft 470 kts 171°
2026-04-26 16:45 30.14024 -69.04536 32091 ft 470 kts 172°
2026-04-26 16:46 30.07612 -69.03038 32089 ft 470 kts 171°
2026-04-26 16:46 30.01210 -69.01539 32087 ft 470 kts 171°
2026-04-26 16:47 29.94804 -69.00040 32088 ft 470 kts 171°
2026-04-26 16:47 29.88398 -68.98545 32089 ft 469 kts 172°
2026-04-26 16:48 29.81995 -68.97060 32086 ft 469 kts 171°
2026-04-26 16:48 29.75597 -68.95564 32085 ft 469 kts 171°
2026-04-26 16:49 29.69195 -68.94074 32083 ft 469 kts 171°
2026-04-26 16:49 29.62801 -68.92595 32085 ft 469 kts 171°
2026-04-26 16:50 29.56408 -68.91109 32084 ft 469 kts 171°
2026-04-26 16:50 29.50015 -68.89637 32080 ft 469 kts 171°
2026-04-26 16:51 29.43619 -68.88156 32078 ft 469 kts 171°
2026-04-26 16:51 29.37225 -68.86673 32077 ft 468 kts 171°
2026-04-26 16:52 29.32951 -68.85683 32076 ft 468 kts 171°
2026-04-26 16:52 29.24443 -68.83725 32071 ft 468 kts 171°
2026-04-26 16:53 29.18058 -68.82262 32070 ft 468 kts 171°
2026-04-26 16:53 29.11658 -68.80794 32070 ft 468 kts 171°
2026-04-26 16:54 29.05271 -68.79335 32073 ft 469 kts 171°
2026-04-26 16:54 28.98873 -68.77872 32066 ft 469 kts 171°
2026-04-26 16:55 28.92481 -68.76395 32067 ft 469 kts 171°
2026-04-26 16:55 28.86080 -68.74926 32069 ft 469 kts 171°
2026-04-26 16:56 28.76476 -68.72734 32068 ft 469 kts 171°
2026-04-26 16:57 28.71112 -68.71517 32069 ft 469 kts 171°
2026-04-26 16:57 28.61500 -68.69335 32069 ft 470 kts 171°
2026-04-26 16:58 28.56171 -68.68125 32066 ft 470 kts 171°
2026-04-26 16:59 28.45473 -68.65697 32071 ft 470 kts 171°
2026-04-26 17:00 28.32644 -68.62791 32064 ft 470 kts 171°
2026-04-26 17:00 28.23030 -68.60624 32050 ft 470 kts 172°
2026-04-26 17:01 28.16615 -68.59183 32047 ft 470 kts 171°
2026-04-26 17:01 28.10196 -68.57735 32054 ft 470 kts 172°
2026-04-26 17:02 28.03779 -68.56293 32051 ft 470 kts 172°
2026-04-26 17:02 27.97356 -68.54848 32045 ft 470 kts 172°
2026-04-26 17:03 27.90943 -68.53408 32038 ft 470 kts 172°
2026-04-26 17:03 27.84536 -68.51966 32044 ft 470 kts 172°
2026-04-26 17:04 27.78118 -68.50527 32046 ft 470 kts 172°
2026-04-26 17:04 27.71697 -68.49098 32039 ft 470 kts 172°
2026-04-26 17:05 27.65275 -68.47667 32040 ft 470 kts 172°
2026-04-26 17:05 27.58854 -68.46223 32036 ft 471 kts 172°
2026-04-26 17:06 27.52425 -68.44789 32039 ft 471 kts 172°
2026-04-26 17:06 27.45996 -68.43360 32039 ft 471 kts 172°
2026-04-26 17:07 27.39568 -68.41939 32042 ft 471 kts 172°
2026-04-26 17:07 27.33139 -68.40510 32042 ft 471 kts 172°
2026-04-26 17:08 27.26710 -68.39084 32043 ft 471 kts 172°
2026-04-26 17:08 27.20325 -68.37674 32037 ft 471 kts 172°
2026-04-26 17:09 27.14945 -68.36484 32038 ft 471 kts 172°
2026-04-26 17:09 27.07432 -68.34824 32039 ft 470 kts 172°
2026-04-26 17:10 27.01054 -68.33408 32039 ft 470 kts 172°
2026-04-26 17:10 26.94634 -68.31995 32044 ft 470 kts 172°
2026-04-26 17:11 26.88215 -68.30584 32044 ft 470 kts 172°
2026-04-26 17:11 26.81803 -68.29172 32044 ft 469 kts 173°
2026-04-26 17:12 26.72204 -68.27057 32041 ft 468 kts 173°
2026-04-26 17:13 26.62617 -68.24964 32034 ft 468 kts 173°
2026-04-26 17:14 26.53039 -68.22872 32034 ft 467 kts 173°
2026-04-26 17:14 26.43477 -68.20777 32029 ft 466 kts 173°
2026-04-26 17:15 26.33929 -68.18694 32027 ft 466 kts 173°
2026-04-26 17:16 26.27563 -68.17309 32026 ft 466 kts 173°
2026-04-26 17:16 26.21211 -68.15918 32022 ft 465 kts 173°
2026-04-26 17:17 26.14851 -68.14542 32022 ft 465 kts 173°
2026-04-26 17:17 26.08497 -68.13166 32023 ft 465 kts 173°
2026-04-26 17:18 26.02139 -68.11791 32022 ft 465 kts 173°
2026-04-26 17:18 25.95780 -68.10418 32025 ft 465 kts 173°
2026-04-26 17:19 25.86259 -68.08353 32025 ft 465 kts 173°
2026-04-26 17:19 25.79904 -68.06989 32026 ft 464 kts 173°
2026-04-26 17:20 25.74637 -68.05853 32028 ft 464 kts 173°
2026-04-26 17:20 25.67228 -68.04240 32025 ft 463 kts 173°
2026-04-26 17:21 25.60906 -68.02881 32029 ft 462 kts 174°
2026-04-26 17:21 25.54590 -68.01530 32031 ft 462 kts 173°
2026-04-26 17:22 25.48276 -68.00180 32033 ft 462 kts 174°
2026-04-26 17:22 25.41963 -67.98821 32023 ft 462 kts 173°
2026-04-26 17:23 25.35660 -67.97457 32026 ft 461 kts 173°
2026-04-26 17:23 25.29360 -67.96107 32024 ft 461 kts 174°
2026-04-26 17:24 25.23065 -67.94771 32026 ft 461 kts 174°
2026-04-26 17:24 25.16770 -67.93428 32021 ft 460 kts 174°
2026-04-26 17:25 25.10486 -67.92087 32022 ft 460 kts 174°
2026-04-26 17:25 25.04211 -67.90741 32020 ft 459 kts 174°
2026-04-26 17:26 24.97940 -67.89409 32022 ft 459 kts 174°
2026-04-26 17:26 24.91672 -67.88075 32018 ft 458 kts 174°
2026-04-26 17:27 24.85419 -67.86745 32019 ft 458 kts 174°
2026-04-26 17:27 24.79163 -67.85421 32022 ft 457 kts 174°
2026-04-26 17:28 24.72916 -67.84095 32021 ft 457 kts 174°
2026-04-26 17:28 24.66679 -67.82769 32023 ft 456 kts 174°
2026-04-26 17:29 24.62511 -67.81891 32021 ft 456 kts 175°
2026-04-26 17:29 24.54226 -67.80142 32014 ft 455 kts 175°
2026-04-26 17:30 24.48008 -67.78823 32007 ft 454 kts 175°
2026-04-26 17:30 24.41802 -67.77516 32004 ft 454 kts 175°
2026-04-26 17:31 24.35597 -67.76259 32005 ft 450 kts 180°
2026-04-26 17:31 24.32509 -67.76190 32005 ft 440 kts 191°
2026-04-26 17:31 24.29535 -67.76785 32002 ft 431 kts 201°
2026-04-26 17:32 24.26779 -67.77982 31999 ft 424 kts 212°
2026-04-26 17:32 24.24312 -67.79703 32000 ft 418 kts 221°
2026-04-26 17:32 24.20462 -67.84383 31998 ft 413 kts 235°
2026-04-26 17:33 24.17086 -67.89482 31996 ft 414 kts 235°
2026-04-26 17:34 24.12003 -67.97113 31990 ft 413 kts 235°
2026-04-26 17:34 24.08613 -68.02196 31995 ft 413 kts 235°
2026-04-26 17:35 24.05228 -68.07278 31990 ft 413 kts 235°
2026-04-26 17:35 24.01845 -68.12360 31989 ft 413 kts 235°
2026-04-26 17:36 23.98456 -68.17436 31997 ft 413 kts 235°
2026-04-26 17:36 23.95637 -68.21646 31993 ft 413 kts 235°
2026-04-26 17:37 23.92223 -68.26702 31993 ft 413 kts 234°
2026-04-26 17:37 23.88714 -68.31681 31993 ft 414 kts 233°
2026-04-26 17:38 23.83397 -68.39105 32002 ft 414 kts 233°
2026-04-26 17:38 23.79862 -68.44072 31987 ft 414 kts 234°
2026-04-26 17:39 23.76338 -68.49031 31980 ft 414 kts 234°
2026-04-26 17:39 23.72810 -68.53998 31995 ft 414 kts 234°
2026-04-26 17:40 23.69856 -68.58146 31997 ft 413 kts 234°
2026-04-26 17:40 23.65756 -68.63896 31994 ft 413 kts 234°
2026-04-26 17:41 23.62234 -68.68843 31993 ft 413 kts 234°
2026-04-26 17:41 23.58707 -68.73781 31987 ft 412 kts 234°
2026-04-26 17:42 23.55188 -68.78708 31985 ft 412 kts 234°
2026-04-26 17:42 23.51668 -68.83632 31984 ft 412 kts 234°
2026-04-26 17:43 23.48148 -68.88559 31985 ft 412 kts 234°
2026-04-26 17:43 23.44624 -68.93474 31979 ft 412 kts 234°
2026-04-26 17:44 23.41085 -68.98386 31966 ft 412 kts 234°
2026-04-26 17:44 23.37552 -69.03303 31979 ft 412 kts 234°
2026-04-26 17:45 23.33991 -69.08254 31981 ft 412 kts 234°
2026-04-26 17:45 23.30477 -69.13134 31981 ft 413 kts 234°
2026-04-26 17:46 23.26940 -69.18052 31977 ft 413 kts 234°
2026-04-26 17:46 23.23398 -69.22974 31979 ft 413 kts 234°
2026-04-26 17:47 23.20429 -69.27091 31981 ft 413 kts 234°
2026-04-26 17:47 23.16300 -69.32796 31985 ft 413 kts 234°
2026-04-26 17:48 23.12722 -69.37735 31984 ft 413 kts 234°
2026-04-26 17:48 23.09173 -69.42638 31979 ft 413 kts 234°
2026-04-26 17:49 23.05649 -69.47504 31983 ft 413 kts 234°
2026-04-26 17:49 23.02074 -69.52437 31979 ft 413 kts 234°
2026-04-26 17:50 22.98524 -69.57327 31983 ft 412 kts 234°
2026-04-26 17:50 22.94995 -69.62183 31985 ft 412 kts 234°
2026-04-26 17:51 22.91422 -69.67093 31982 ft 412 kts 234°
2026-04-26 17:51 22.87865 -69.71981 31980 ft 412 kts 234°
2026-04-26 17:52 22.84334 -69.76829 31980 ft 412 kts 234°
2026-04-26 17:52 22.80776 -69.81709 31979 ft 412 kts 234°
2026-04-26 17:53 22.77215 -69.86579 31979 ft 412 kts 234°
2026-04-26 17:54 22.71279 -69.93363 31980 ft 417 kts 225°
2026-04-26 17:54 22.66928 -69.97509 31982 ft 417 kts 226°
2026-04-26 17:55 22.62553 -70.01690 31980 ft 416 kts 226°
2026-04-26 17:55 22.58213 -70.05835 31980 ft 416 kts 226°
2026-04-26 17:56 22.53869 -70.09974 31975 ft 416 kts 226°
2026-04-26 17:57 22.45181 -70.18241 31974 ft 416 kts 226°
2026-04-26 17:57 22.40827 -70.22362 31976 ft 416 kts 226°
2026-04-26 17:58 22.32160 -70.30613 31980 ft 414 kts 227°
2026-04-26 17:59 22.25866 -70.36936 31974 ft 413 kts 228°
2026-04-26 17:59 22.21639 -70.41203 31968 ft 414 kts 228°
2026-04-26 18:00 22.17419 -70.45426 31967 ft 414 kts 227°
2026-04-26 18:00 22.13185 -70.49635 31965 ft 414 kts 227°
2026-04-26 18:01 22.08983 -70.53815 31965 ft 414 kts 227°
2026-04-26 18:01 22.04721 -70.58053 31966 ft 414 kts 228°
2026-04-26 18:02 22.01923 -70.60837 31963 ft 414 kts 227°
2026-04-26 18:02 21.96282 -70.66434 31958 ft 414 kts 227°
2026-04-26 18:03 21.92021 -70.70667 31958 ft 414 kts 227°
2026-04-26 18:03 21.87783 -70.74867 31959 ft 415 kts 227°
2026-04-26 18:04 21.83557 -70.79049 31957 ft 415 kts 227°
2026-04-26 18:05 21.76912 -70.85161 31956 ft 419 kts 224°
2026-04-26 18:05 21.72320 -70.89035 31953 ft 420 kts 224°
2026-04-26 18:06 21.67740 -70.92925 31967 ft 419 kts 224°
2026-04-26 18:06 21.63200 -70.96858 31965 ft 419 kts 224°
2026-04-26 18:07 21.58697 -71.00780 31975 ft 420 kts 224°
2026-04-26 18:07 21.54147 -71.04723 31982 ft 421 kts 224°
2026-04-26 18:08 21.49554 -71.08693 31989 ft 421 kts 224°
2026-04-26 18:08 21.44983 -71.12634 31994 ft 421 kts 224°
2026-04-26 18:09 21.40089 -71.16119 31991 ft 426 kts 218°
2026-04-26 18:09 21.35063 -71.19487 31989 ft 426 kts 218°
2026-04-26 18:10 21.30034 -71.22855 31982 ft 426 kts 218°
2026-04-26 18:10 21.24975 -71.26244 31972 ft 426 kts 218°
2026-04-26 18:11 21.19994 -71.29588 31966 ft 425 kts 218°
2026-04-26 18:11 21.14983 -71.32958 31959 ft 425 kts 218°
2026-04-26 18:12 21.09967 -71.36313 31954 ft 425 kts 218°
2026-04-26 18:12 21.04939 -71.39656 31956 ft 425 kts 217°
2026-04-26 18:13 20.99788 -71.42809 31958 ft 427 kts 215°
2026-04-26 18:13 20.94571 -71.45863 31959 ft 427 kts 214°
2026-04-26 18:14 20.89369 -71.48935 31949 ft 427 kts 215°
2026-04-26 18:14 20.84184 -71.52050 31957 ft 427 kts 215°
2026-04-26 18:15 20.79005 -71.55165 31951 ft 427 kts 215°
2026-04-26 18:15 20.74691 -71.57748 31953 ft 428 kts 215°
2026-04-26 18:16 20.69501 -71.60855 31951 ft 428 kts 215°
2026-04-26 18:16 20.61703 -71.65514 31953 ft 428 kts 215°
2026-04-26 18:17 20.56497 -71.68617 31953 ft 428 kts 215°
2026-04-26 18:17 20.51298 -71.71718 31956 ft 428 kts 215°
2026-04-26 18:18 20.46097 -71.74820 31952 ft 428 kts 215°
2026-04-26 18:18 20.40735 -71.77632 31946 ft 436 kts 205°
2026-04-26 18:19 20.34798 -71.79240 31942 ft 441 kts 200°
2026-04-26 18:19 20.28798 -71.80791 31933 ft 441 kts 200°
2026-04-26 18:20 20.22878 -71.82325 31931 ft 441 kts 200°
2026-04-26 18:20 20.17885 -71.83622 31932 ft 441 kts 200°
2026-04-26 18:21 20.10952 -71.85417 31930 ft 441 kts 200°
2026-04-26 18:21 20.04947 -71.86968 31930 ft 442 kts 200°
2026-04-26 18:22 19.99007 -71.88499 31925 ft 442 kts 200°
2026-04-26 18:22 19.93023 -71.90042 31930 ft 443 kts 200°
2026-04-26 18:23 19.87036 -71.91585 31931 ft 443 kts 200°
2026-04-26 18:23 19.84040 -71.92358 31735 ft 444 kts 200°
2026-04-26 18:23 19.80992 -71.93145 31487 ft 445 kts 200°
2026-04-26 18:24 19.78016 -71.93912 31250 ft 447 kts 200°
2026-04-26 18:24 19.74989 -71.94692 31010 ft 448 kts 200°
2026-04-26 18:24 19.71955 -71.95473 30779 ft 450 kts 200°
2026-04-26 18:24 19.68905 -71.96259 30548 ft 452 kts 200°
2026-04-26 18:25 19.65851 -71.97074 30314 ft 451 kts 202°
2026-04-26 18:25 19.62927 -71.98221 30086 ft 447 kts 210°
2026-04-26 18:25 19.60143 -71.99681 29829 ft 447 kts 212°
2026-04-26 18:25 19.57362 -72.01164 29565 ft 448 kts 212°
2026-04-26 18:26 19.54577 -72.02649 29295 ft 449 kts 212°
2026-04-26 18:26 19.51782 -72.04134 29035 ft 449 kts 211°
2026-04-26 18:26 19.48988 -72.05613 28522 ft 448 kts 211°
2026-04-26 18:26 19.46189 -72.07095 27317 ft 451 kts 211°
2026-04-26 18:27 19.43332 -72.08609 26133 ft 454 kts 210°
2026-04-26 18:27 19.40539 -72.10091 25045 ft 455 kts 210°
2026-04-26 18:27 19.37695 -72.11601 24367 ft 459 kts 210°
2026-04-26 18:27 19.34804 -72.13135 22936 ft 457 kts 210°
2026-04-26 18:28 19.31970 -72.14636 21412 ft 451 kts 210°
2026-04-26 18:28 19.29230 -72.16082 20734 ft 428 kts 209°
2026-04-26 18:28 19.26615 -72.17457 19951 ft 416 kts 209°
2026-04-26 18:28 19.24061 -72.18802 19196 ft 416 kts 209°
2026-04-26 18:29 19.21436 -72.20190 18437 ft 417 kts 209°
2026-04-26 18:29 19.18807 -72.21392 17663 ft 419 kts 201°
2026-04-26 18:29 19.15930 -72.22091 16908 ft 420 kts 190°
2026-04-26 18:29 19.13003 -72.22215 16166 ft 422 kts 179°
2026-04-26 18:30 19.10130 -72.21767 15446 ft 425 kts 169°
2026-04-26 18:30 19.07219 -72.21038 14721 ft 423 kts 168°
2026-04-26 18:30 19.04359 -72.20327 14029 ft 421 kts 168°
2026-04-26 18:30 19.01510 -72.19622 13302 ft 420 kts 168°
2026-04-26 18:31 18.98678 -72.18925 12619 ft 416 kts 168°
2026-04-26 18:31 18.95881 -72.18237 12123 ft 408 kts 168°
2026-04-26 18:31 18.93173 -72.17566 11983 ft 391 kts 168°
2026-04-26 18:31 18.90609 -72.16932 11842 ft 363 kts 168°
2026-04-26 18:32 18.88246 -72.16352 11721 ft 336 kts 168°
2026-04-26 18:32 18.86053 -72.15818 11576 ft 312 kts 168°
2026-04-26 18:32 18.83981 -72.15314 11166 ft 301 kts 168°
2026-04-26 18:32 18.81966 -72.14825 10859 ft 296 kts 168°
2026-04-26 18:33 18.79958 -72.14338 10618 ft 294 kts 168°
2026-04-26 18:33 18.77969 -72.13854 10390 ft 293 kts 168°
2026-04-26 18:33 18.75985 -72.13373 10155 ft 291 kts 168°
2026-04-26 18:33 18.74015 -72.12895 9936 ft 289 kts 168°
2026-04-26 18:34 18.72033 -72.12554 9820 ft 288 kts 173°
2026-04-26 18:34 18.70039 -72.12265 9518 ft 292 kts 173°
2026-04-26 18:34 18.68010 -72.11970 9079 ft 292 kts 173°
2026-04-26 18:34 18.66063 -72.11404 8730 ft 291 kts 155°
2026-04-26 18:35 18.64420 -72.10178 8328 ft 292 kts 136°
2026-04-26 18:35 18.63249 -72.08389 7553 ft 304 kts 114°
2026-04-26 18:35 18.62613 -72.06276 7030 ft 296 kts 107°
2026-04-26 18:35 18.62051 -72.04265 6844 ft 275 kts 108°
2026-04-26 18:36 18.61524 -72.02410 6717 ft 253 kts 108°
2026-04-26 18:36 18.60942 -72.00749 6585 ft 231 kts 125°
2026-04-26 18:36 18.59845 -71.99652 6488 ft 212 kts 155°
2026-04-26 18:36 18.58452 -71.99304 6268 ft 204 kts 182°
2026-04-26 18:37 18.57100 -71.99684 5816 ft 201 kts 208°
2026-04-26 18:37 18.56097 -72.00661 5454 ft 196 kts 238°
2026-04-26 18:37 18.55734 -72.02028 5155 ft 196 kts 270°
2026-04-26 18:37 18.56026 -72.03413 4891 ft 193 kts 285°
2026-04-26 18:38 18.56416 -72.04755 4618 ft 190 kts 286°
2026-04-26 18:38 18.56801 -72.06084 4344 ft 188 kts 285°
2026-04-26 18:38 18.57181 -72.07398 4076 ft 186 kts 285°
2026-04-26 18:38 18.57554 -72.08696 3816 ft 185 kts 285°
2026-04-26 18:39 18.57919 -72.09969 3558 ft 182 kts 285°
2026-04-26 18:39 18.58290 -72.11258 3299 ft 180 kts 285°
2026-04-26 18:39 18.58645 -72.12498 3040 ft 173 kts 283°
2026-04-26 18:39 18.58782 -72.13719 2797 ft 163 kts 266°
2026-04-26 18:40 18.58718 -72.14862 2605 ft 152 kts 266°
2026-04-26 18:40 18.58663 -72.15959 2405 ft 149 kts 266°
2026-04-26 18:40 18.58609 -72.17048 2193 ft 149 kts 266°
2026-04-26 18:40 18.58556 -72.18138 1996 ft 150 kts 266°
2026-04-26 18:41 18.58502 -72.19240 1780 ft 151 kts 267°
2026-04-26 18:41 18.58447 -72.20348 1566 ft 151 kts 266°
2026-04-26 18:41 18.58392 -72.21451 1353 ft 150 kts 266°
2026-04-26 18:41 18.58338 -72.22538 1149 ft 147 kts 266°
2026-04-26 18:42 18.58284 -72.23608 957 ft 145 kts 266°
2026-04-26 18:42 18.58226 -72.24663 762 ft 144 kts 267°
2026-04-26 18:42 18.58162 -72.25716 567 ft 144 kts 267°
2026-04-26 18:42 18.58120 -72.26777 398 ft 146 kts 270°
2026-04-26 18:43 18.58082 -72.27851 157 ft 146 kts 266°
2026-04-26 18:43 18.58031 -72.28794 116 ft 94 kts 267°
2026-04-26 18:43 18.58009 -72.29182 109 ft 29 kts 266°
2026-04-26 18:43 18.58000 -72.29374 107 ft 22 kts 258°
2026-04-26 18:44 18.57947 -72.29461 106 ft 10 kts 206°
2026-04-26 18:44 18.57881 -72.29464 106 ft 9 kts 178°
2026-04-26 18:44 18.57825 -72.29462 106 ft 7 kts 177°
2026-04-26 18:44 18.57766 -72.29458 106 ft 9 kts 176°
2026-04-26 18:45 18.57701 -72.29447 107 ft 7 kts 136°
2026-04-26 18:45 18.57682 -72.29430 107 ft 7 kts 158°
2026-04-26 18:45 18.57638 -72.29429 107 ft 6 kts 186°
2026-04-26 18:45 18.57627 -72.29430 107 ft 1 kts 182°
2026-04-26 18:46 18.57624 -72.29430 107 ft 0 kts 181°
2026-04-26 18:46 18.57621 -72.29430 107 ft 1 kts 179°
2026-04-26 18:46 18.57620 -72.29430 107 ft 0 kts 179°